Precipitable_Water
0.64 0.64 0.62 0.59 0.57 0.56 0.56 0.56 0.57 0.59 0.60 0.60 0.60 0.59 0.58 0.58 0.58 0.60 0.65 0.67 0.66 0.64 0.63 0.62 0.63 0.62 0.61 0.58 0.52 0.48 0.45 0.36 0.31 0.31 0.29 0.24 0.33 0.40 0.46 0.46 0.40 0.47 0.56 0.56 0.58 0.65 0.71 0.74 0.82 0.99 0.99 0.92 0.90 0.89 0.97 0.81 0.88 0.81 0.61 0.56 0.44 0.42 0.48 0.57 0.63 0.72 0.70 0.72 0.79 0.88 0.77 0.72 0.74 0.78 0.77 0.94 0.94 0.93 0.95 0.91 0.91 1.02 1.00 1.05 1.12 1.22 1.29 1.33
0.63 0.64 0.62 0.58 0.56 0.56 0.57 0.56 0.55 0.57 0.59 0.59 0.59 0.59 0.58 0.58 0.58 0.62 0.68 0.68 0.65 0.63 0.62 0.62 0.63 0.63 0.59 0.54 0.50 0.47 0.41 0.33 0.25 0.24 0.22 0.30 0.37 0.35 0.36 0.40 0.38 0.41 0.53 0.49 0.53 0.62 0.74 0.72 0.77 0.93 0.95 0.82 0.81 0.77 0.69 0.70 0.78 0.72 0.60 0.55 0.43 0.45 0.47 0.50 0.44 0.60 0.74 0.64 0.87 0.80 0.89 0.87 0.79 0.87 0.89 0.93 0.90 0.94 0.80 0.93 1.02 0.97 1.00 1.06 1.09 1.17 1.21 1.27
0.62 0.63 0.61 0.59 0.56 0.55 0.55 0.55 0.55 0.55 0.58 0.59 0.58 0.59 0.58 0.58 0.59 0.63 0.70 0.67 0.64 0.61 0.62 0.62 0.63 0.60 0.54 0.51 0.47 0.45 0.40 0.27 0.27 0.19 0.17 0.26 0.37 0.36 0.34 0.35 0.36 0.42 0.44 0.44 0.55 0.73 0.70 0.73 0.81 0.87 0.79 0.74 0.62 0.58 0.61 0.59 0.65 0.60 0.51 0.43 0.41 0.40 0.45 0.50 0.75 0.75 0.76 0.69 0.72 0.81 0.78 0.78 0.81 0.99 1.00 0.92 0.83 0.88 0.94 0.83 0.92 0.89 0.87 0.94 1.01 1.07 1.09 1.17
0.59 0.61 0.60 0.59 0.56 0.55 0.55 0.55 0.54 0.54 0.56 0.58 0.58 0.58 0.58 0.57 0.59 0.65 0.70 0.66 0.62 0.61 0.61 0.61 0.59 0.55 0.52 0.48 0.49 0.47 0.37 0.27 0.16 0.13 0.20 0.27 0.30 0.32 0.31 0.31 0.35 0.38 0.42 0.46 0.64 0.71 0.69 0.73 0.81 0.78 0.79 0.73 0.59 0.57 0.50 0.55 0.56 0.47 0.48 0.42 0.42 0.45 0.44 0.56 0.64 0.68 0.66 0.75 0.75 0.71 0.69 0.75 0.74 0.70 1.20 1.01 0.84 0.80 0.94 0.96 0.89 0.86 0.87 0.91 0.95 0.99 1.03 1.10
0.56 0.58 0.59 0.58 0.56 0.55 0.54 0.54 0.54 0.54 0.55 0.56 0.57 0.58 0.58 0.58 0.59 0.67 0.69 0.65 0.62 0.58 0.56 0.55 0.53 0.53 0.50 0.50 0.46 0.49 0.34 0.14 0.25 0.43 0.46 0.29 0.28 0.27 0.28 0.28 0.32 0.35 0.38 0.48 0.64 0.72 0.61 0.65 0.67 0.71 0.73 0.61 0.53 0.47 0.51 0.47 0.43 0.51 0.51 0.50 0.50 0.48 0.47 0.57 0.64 0.75 0.73 0.75 0.69 0.70 0.71 0.70 0.91 1.06 0.95 0.97 0.93 0.92 0.91 1.00 0.97 0.99 0.98 0.95 0.91 0.97 1.03 1.00
0.53 0.56 0.58 0.58 0.56 0.54 0.53 0.53 0.53 0.53 0.53 0.55 0.55 0.56 0.57 0.57 0.59 0.67 0.68 0.65 0.61 0.53 0.50 0.51 0.52 0.50 0.52 0.51 0.50 0.45 0.26 0.19 0.44 0.56 0.48 0.40 0.32 0.29 0.27 0.26 0.28 0.33 0.38 0.49 0.58 0.66 0.57 0.53 0.54 0.62 0.63 0.60 0.56 0.36 0.47 0.41 0.41 0.43 0.50 0.53 0.69 0.63 0.62 0.69 0.65 0.64 0.67 0.66 0.73 0.73 0.72 0.78 0.79 0.95 1.01 0.94 1.08 1.13 1.25 1.13 1.08 1.05 1.03 1.07 1.02 0.96 0.97 0.97
0.50 0.53 0.56 0.58 0.57 0.54 0.51 0.52 0.52 0.53 0.53 0.54 0.55 0.55 0.57 0.58 0.59 0.68 0.68 0.65 0.59 0.51 0.48 0.47 0.46 0.47 0.49 0.52 0.44 0.33 0.22 0.25 0.33 0.60 0.52 0.41 0.37 0.32 0.28 0.25 0.29 0.31 0.36 0.41 0.50 0.59 0.52 0.48 0.53 0.58 0.62 0.54 0.45 0.30 0.32 0.35 0.45 0.50 0.45 0.47 0.51 0.60 0.61 0.62 0.53 0.67 0.74 0.74 0.66 0.62 0.81 0.74 0.84 0.82 1.12 0.97 1.25 1.23 1.24 1.14 1.09 1.10 1.07 1.12 0.99 1.00 0.97 0.96
0.49 0.51 0.54 0.56 0.56 0.55 0.53 0.52 0.52 0.52 0.53 0.54 0.55 0.55 0.55 0.56 0.58 0.69 0.68 0.64 0.58 0.49 0.48 0.46 0.46 0.43 0.44 0.44 0.34 0.25 0.19 0.16 0.29 0.50 0.44 0.35 0.33 0.32 0.28 0.25 0.26 0.28 0.34 0.37 0.45 0.52 0.50 0.45 0.50 0.58 0.54 0.52 0.35 0.38 0.34 0.35 0.39 0.52 0.51 0.62 0.58 0.64 0.61 0.64 0.71 0.71 0.66 0.66 0.77 0.84 0.82 0.79 0.80 0.83 0.98 0.96 1.13 1.22 1.18 1.15 1.08 1.13 1.10 1.06 1.05 1.01 1.02 1.02
0.48 0.49 0.52 0.55 0.56 0.56 0.53 0.51 0.51 0.51 0.51 0.52 0.54 0.55 0.55 0.55 0.58 0.69 0.68 0.64 0.57 0.49 0.50 0.50 0.43 0.41 0.45 0.36 0.29 0.26 0.21 0.28 0.48 0.44 0.43 0.34 0.26 0.26 0.23 0.22 0.27 0.25 0.31 0.39 0.50 0.52 0.44 0.44 0.51 0.59 0.52 0.40 0.37 0.36 0.38 0.35 0.48 0.53 0.53 0.56 0.57 0.59 0.63 0.68 0.62 0.59 0.62 0.63 0.68 0.66 0.67 0.67 0.73 0.81 0.89 0.95 1.00 1.09 1.12 1.04 1.09 1.05 1.06 1.04 1.03 1.07 1.01 1.04
0.48 0.49 0.50 0.53 0.56 0.57 0.55 0.51 0.51 0.51 0.51 0.52 0.53 0.54 0.55 0.55 0.56 0.68 0.69 0.64 0.58 0.49 0.51 0.50 0.45 0.40 0.35 0.28 0.24 0.15 0.46 0.56 0.51 0.52 0.46 0.31 0.25 0.22 0.21 0.23 0.24 0.26 0.29 0.36 0.51 0.50 0.40 0.44 0.56 0.59 0.57 0.56 0.35 0.35 0.36 0.38 0.48 0.56 0.45 0.55 0.60 0.63 0.60 0.59 0.58 0.58 0.60 0.64 0.67 0.58 0.63 0.67 0.77 0.76 0.63 0.90 1.04 1.08 1.08 1.03 1.05 1.08 1.02 1.00 1.06 1.07 1.06 1.10
0.48 0.49 0.50 0.52 0.55 0.56 0.55 0.53 0.51 0.50 0.50 0.50 0.52 0.54 0.54 0.54 0.55 0.65 0.69 0.65 0.59 0.50 0.50 0.51 0.45 0.39 0.24 0.28 0.20 0.16 0.57 0.50 0.59 0.60 0.43 0.36 0.23 0.19 0.18 0.23 0.24 0.27 0.30 0.36 0.47 0.48 0.45 0.48 0.64 0.63 0.48 0.44 0.30 0.34 0.36 0.40 0.56 0.52 0.59 0.62 0.60 0.60 0.60 0.54 0.60 0.58 0.67 0.62 0.70 0.64 0.66 0.79 0.81 0.76 0.68 0.87 1.02 1.08 0.99 0.99 1.06 1.09 1.03 0.98 1.09 1.07 1.03 1.15
0.48 0.49 0.48 0.51 0.53 0.54 0.54 0.52 0.50 0.50 0.51 0.49 0.51 0.53 0.54 0.54 0.54 0.63 0.69 0.65 0.59 0.52 0.50 0.54 0.46 0.37 0.29 0.26 0.23 0.28 0.53 0.53 0.57 0.48 0.39 0.38 0.21 0.18 0.19 0.24 0.25 0.26 0.28 0.34 0.42 0.40 0.40 0.46 0.54 0.54 0.36 0.40 0.32 0.40 0.49 0.51 0.54 0.57 0.62 0.55 0.54 0.67 0.61 0.58 0.56 0.70 0.73 0.61 0.68 0.76 0.69 0.55 0.64 0.63 0.71 0.89 1.03 1.09 0.99 0.93 1.02 1.02 1.01 1.10 1.14 1.05 1.03 1.16
0.48 0.48 0.50 0.51 0.52 0.53 0.55 0.55 0.52 0.51 0.50 0.49 0.50 0.52 0.54 0.54 0.55 0.63 0.69 0.65 0.62 0.56 0.52 0.56 0.47 0.39 0.32 0.22 0.15 0.41 0.51 0.57 0.50 0.49 0.41 0.40 0.28 0.22 0.21 0.25 0.27 0.27 0.29 0.34 0.39 0.38 0.40 0.47 0.58 0.55 0.49 0.34 0.35 0.37 0.58 0.59 0.60 0.62 0.61 0.59 0.55 0.55 0.55 0.61 0.71 0.70 0.72 0.69 0.74 0.79 0.59 0.56 0.58 0.69 0.77 0.90 0.92 1.09 1.03 1.08 1.05 1.00 1.06 1.04 1.06 1.03 1.07 1.21
0.48 0.49 0.50 0.51 0.52 0.52 0.54 0.54 0.52 0.50 0.50 0.49 0.48 0.51 0.53 0.54 0.57 0.66 0.69 0.66 0.63 0.57 0.54 0.61 0.60 0.33 0.33 0.23 0.40 0.35 0.38 0.54 0.56 0.44 0.42 0.40 0.36 0.23 0.21 0.25 0.29 0.27 0.31 0.34 0.37 0.38 0.37 0.49 0.59 0.56 0.50 0.39 0.37 0.46 0.46 0.59 0.64 0.53 0.65 0.61 0.52 0.50 0.51 0.69 0.70 0.72 0.75 0.66 0.80 0.82 0.58 0.65 0.70 0.71 0.87 0.94 0.91 0.89 0.84 0.89 1.16 1.14 1.07 1.03 1.05 1.05 1.09 1.11
0.49 0.49 0.49 0.51 0.51 0.51 0.52 0.54 0.53 0.51 0.50 0.50 0.48 0.49 0.52 0.54 0.61 0.68 0.72 0.68 0.67 0.64 0.58 0.67 0.61 0.38 0.24 0.32 0.44 0.47 0.40 0.43 0.52 0.39 0.38 0.37 0.36 0.25 0.19 0.23 0.27 0.26 0.30 0.32 0.32 0.31 0.37 0.53 0.55 0.47 0.42 0.43 0.42 0.42 0.44 0.55 0.57 0.64 0.63 0.51 0.55 0.51 0.56 0.61 0.74 0.61 0.59 0.62 0.77 0.73 0.67 0.71 0.75 0.69 0.86 0.89 0.91 0.97 0.90 0.90 0.86 1.00 1.07 1.00 1.08 1.04 1.15 1.12
0.49 0.49 0.49 0.51 0.52 0.52 0.52 0.52 0.53 0.51 0.50 0.50 0.47 0.48 0.52 0.57 0.63 0.70 0.75 0.73 0.70 0.66 0.65 0.55 0.60 0.47 0.37 0.31 0.68 0.61 0.40 0.23 0.32 0.38 0.35 0.41 0.36 0.26 0.22 0.24 0.28 0.27 0.29 0.30 0.32 0.31 0.45 0.53 0.45 0.46 0.43 0.41 0.42 0.41 0.46 0.52 0.48 0.60 0.64 0.52 0.56 0.53 0.55 0.56 0.69 0.58 0.73 0.69 0.70 0.76 0.65 0.76 0.78 0.77 0.81 0.90 0.95 0.98 0.94 0.99 1.03 1.08 1.09 1.04 1.03 1.10 1.24 1.15
0.50 0.48 0.48 0.48 0.49 0.51 0.49 0.51 0.52 0.51 0.50 0.50 0.47 0.46 0.53 0.61 0.69 0.77 0.82 0.79 0.67 0.64 0.56 0.54 0.70 0.65 0.24 0.51 0.60 0.45 0.31 0.21 0.32 0.36 0.37 0.42 0.39 0.33 0.27 0.28 0.28 0.26 0.28 0.31 0.38 0.42 0.43 0.44 0.47 0.44 0.42 0.37 0.43 0.45 0.52 0.46 0.44 0.58 0.62 0.54 0.66 0.58 0.62 0.56 0.65 0.57 0.76 0.66 0.64 0.71 0.70 0.72 0.78 0.79 0.73 0.87 0.98 1.03 0.96 0.99 1.11 1.16 1.13 1.15 1.16 1.20 1.26 1.17
0.52 0.50 0.48 0.48 0.48 0.49 0.49 0.48 0.51 0.51 0.50 0.50 0.46 0.44 0.52 0.64 0.75 0.80 0.85 0.78 0.67 0.61 0.58 0.63 0.62 0.47 0.29 0.46 0.37 0.37 0.28 0.20 0.32 0.34 0.36 0.38 0.37 0.33 0.28 0.26 0.26 0.26 0.29 0.29 0.42 0.41 0.44 0.40 0.43 0.34 0.34 0.33 0.35 0.41 0.40 0.39 0.45 0.49 0.50 0.52 0.55 0.60 0.68 0.63 0.57 0.59 0.67 0.49 0.68 0.64 0.75 0.77 0.76 0.77 0.81 0.77 1.00 0.89 0.86 0.93 0.95 1.08 1.18 1.12 1.16 1.28 1.25 1.29
0.52 0.51 0.51 0.49 0.48 0.48 0.47 0.47 0.48 0.50 0.50 0.50 0.47 0.47 0.61 0.74 0.84 0.88 0.82 0.79 0.53 0.42 0.25 0.36 0.40 0.25 0.30 0.39 0.45 0.47 0.22 0.31 0.37 0.33 0.29 0.32 0.32 0.30 0.26 0.25 0.23 0.26 0.24 0.31 0.38 0.37 0.39 0.40 0.37 0.33 0.31 0.29 0.29 0.37 0.39 0.48 0.49 0.51 0.50 0.50 0.51 0.49 0.56 0.65 0.70 0.70 0.66 0.51 0.64 0.70 0.68 0.73 0.73 0.74 0.83 0.79 0.89 0.87 0.84 0.93 1.02 1.04 1.10 1.16 1.06 1.18 1.19 1.26
0.52 0.50 0.49 0.49 0.49 0.49 0.47 0.45 0.47 0.49 0.50 0.47 0.43 0.44 0.56 0.66 0.73 0.72 0.76 0.74 0.58 0.45 0.42 0.48 0.50 0.41 0.42 0.43 0.39 0.39 0.30 0.47 0.33 0.32 0.30 0.33 0.30 0.24 0.20 0.21 0.21 0.23 0.23 0.27 0.35 0.33 0.39 0.32 0.29 0.25 0.29 0.27 0.30 0.38 0.38 0.46 0.48 0.51 0.50 0.44 0.49 0.49 0.52 0.60 0.64 0.74 0.66 0.60 0.65 0.73 0.82 0.77 0.74 0.74 0.84 0.83 0.86 0.89 0.84 0.93 0.91 0.94 1.02 1.05 1.09 1.06 1.14 1.16
0.53 0.51 0.50 0.50 0.49 0.48 0.47 0.44 0.45 0.48 0.50 0.47 0.43 0.39 0.36 0.44 0.40 0.48 0.49 0.48 0.56 0.52 0.44 0.43 0.48 0.47 0.46 0.47 0.39 0.31 0.30 0.39 0.38 0.32 0.30 0.38 0.33 0.22 0.18 0.19 0.20 0.19 0.24 0.29 0.31 0.37 0.37 0.28 0.29 0.26 0.31 0.27 0.30 0.38 0.41 0.42 0.45 0.40 0.39 0.41 0.42 0.45 0.44 0.51 0.57 0.69 0.69 0.61 0.62 0.76 0.79 0.78 0.77 0.81 0.85 0.87 0.86 0.87 0.83 0.90 0.90 0.93 0.96 0.97 1.10 1.13 1.06 1.15
0.53 0.52 0.51 0.49 0.49 0.48 0.46 0.43 0.43 0.46 0.48 0.46 0.45 0.37 0.40 0.48 0.53 0.54 0.51 0.34 0.40 0.43 0.45 0.50 0.50 0.40 0.51 0.51 0.39 0.34 0.41 0.35 0.31 0.30 0.32 0.31 0.39 0.22 0.19 0.19 0.20 0.18 0.23 0.27 0.32 0.31 0.31 0.24 0.29 0.28 0.31 0.30 0.31 0.37 0.41 0.42 0.41 0.41 0.35 0.35 0.39 0.44 0.48 0.54 0.53 0.63 0.64 0.55 0.61 0.66 0.70 0.78 0.84 0.85 0.87 0.83 0.81 0.92 0.91 0.96 0.95 0.96 1.02 0.95 1.11 1.09 1.01 1.15
0.51 0.52 0.52 0.50 0.48 0.48 0.45 0.42 0.40 0.42 0.44 0.47 0.46 0.47 0.48 0.60 0.56 0.53 0.56 0.44 0.33 0.37 0.38 0.42 0.42 0.36 0.43 0.48 0.43 0.47 0.38 0.30 0.23 0.26 0.27 0.26 0.34 0.25 0.21 0.19 0.20 0.21 0.23 0.25 0.27 0.26 0.26 0.26 0.29 0.31 0.29 0.30 0.29 0.33 0.35 0.34 0.36 0.31 0.28 0.31 0.31 0.39 0.37 0.37 0.47 0.56 0.58 0.54 0.48 0.60 0.64 0.76 0.83 0.91 0.92 0.92 0.88 0.86 0.92 0.97 0.98 1.00 1.00 0.95 1.01 1.01 1.00 1.03
0.48 0.51 0.52 0.51 0.49 0.46 0.45 0.40 0.40 0.43 0.56 0.53 0.46 0.45 0.56 0.55 0.49 0.59 0.53 0.37 0.30 0.30 0.35 0.46 0.41 0.40 0.40 0.41 0.46 0.45 0.37 0.34 0.28 0.23 0.28 0.22 0.26 0.29 0.24 0.19 0.20 0.21 0.22 0.23 0.28 0.28 0.26 0.30 0.32 0.33 0.28 0.28 0.27 0.27 0.31 0.34 0.31 0.32 0.31 0.30 0.32 0.36 0.39 0.40 0.47 0.54 0.57 0.58 0.48 0.57 0.60 0.69 0.75 0.84 0.91 0.98 1.00 0.93 0.91 0.94 0.96 1.03 1.00 1.07 1.04 1.09 1.04 1.00
0.46 0.48 0.51 0.51 0.47 0.48 0.41 0.39 0.34 0.44 0.44 0.44 0.44 0.43 0.53 0.58 0.66 0.68 0.51 0.39 0.35 0.27 0.33 0.38 0.46 0.39 0.40 0.51 0.51 0.38 0.33 0.35 0.30 0.29 0.28 0.22 0.23 0.26 0.24 0.23 0.22 0.20 0.24 0.24 0.27 0.30 0.29 0.33 0.34 0.33 0.30 0.27 0.28 0.27 0.26 0.31 0.28 0.27 0.30 0.31 0.33 0.35 0.37 0.41 0.53 0.50 0.46 0.45 0.47 0.49 0.50 0.59 0.69 0.81 0.90 1.04 0.97 0.96 0.98 0.93 0.89 0.99 0.96 1.03 0.98 1.02 1.07 1.09
0.46 0.46 0.49 0.49 0.48 0.46 0.41 0.31 0.44 0.45 0.43 0.38 0.42 0.48 0.65 0.70 0.72 0.69 0.52 0.37 0.21 0.23 0.43 0.26 0.43 0.31 0.43 0.38 0.44 0.39 0.34 0.27 0.31 0.32 0.30 0.24 0.26 0.26 0.27 0.22 0.22 0.21 0.25 0.25 0.26 0.29 0.33 0.34 0.33 0.32 0.32 0.27 0.28 0.27 0.27 0.26 0.24 0.25 0.23 0.31 0.32 0.33 0.31 0.35 0.34 0.35 0.31 0.33 0.46 0.51 0.38 0.60 0.74 0.73 0.80 0.87 0.94 0.98 1.03 0.98 0.95 0.98 1.00 0.97 0.96 1.01 1.05 1.06
0.46 0.45 0.47 0.48 0.46 0.48 0.31 0.24 0.34 0.35 0.32 0.32 0.33 0.43 0.51 0.56 0.64 0.58 0.44 0.35 0.22 0.27 0.30 0.39 0.29 0.36 0.35 0.39 0.38 0.39 0.22 0.22 0.33 0.34 0.32 0.29 0.25 0.31 0.26 0.23 0.23 0.27 0.27 0.29 0.25 0.25 0.32 0.33 0.31 0.28 0.30 0.29 0.26 0.25 0.28 0.26 0.25 0.24 0.31 0.29 0.28 0.26 0.27 0.29 0.29 0.29 0.33 0.45 0.48 0.51 0.48 0.45 0.55 0.68 0.77 0.85 0.84 0.92 0.98 0.96 0.96 1.03 1.05 1.02 0.98 1.01 1.02 1.08
0.46 0.45 0.45 0.48 0.44 0.44 0.37 0.39 0.36 0.30 0.31 0.35 0.35 0.38 0.48 0.55 0.60 0.60 0.42 0.19 0.17 0.37 0.32 0.30 0.32 0.44 0.37 0.43 0.43 0.31 0.27 0.30 0.25 0.29 0.35 0.31 0.28 0.27 0.25 0.23 0.21 0.24 0.26 0.26 0.20 0.27 0.30 0.31 0.29 0.23 0.27 0.30 0.27 0.25 0.29 0.27 0.23 0.28 0.34 0.31 0.28 0.29 0.29 0.27 0.25 0.32 0.36 0.39 0.38 0.41 0.46 0.41 0.45 0.65 0.76 0.77 0.73 0.75 0.83 0.95 0.95 0.98 1.05 0.98 0.95 1.01 1.03 1.02
0.46 0.44 0.45 0.47 0.44 0.36 0.48 0.46 0.42 0.33 0.31 0.38 0.46 0.49 0.51 0.56 0.52 0.43 0.41 0.23 0.42 0.37 0.50 0.33 0.42 0.36 0.40 0.45 0.41 0.34 0.26 0.29 0.23 0.28 0.35 0.33 0.28 0.28 0.22 0.25 0.24 0.25 0.28 0.26 0.24 0.26 0.27 0.30 0.28 0.25 0.26 0.28 0.30 0.28 0.30 0.27 0.23 0.27 0.35 0.43 0.36 0.32 0.31 0.29 0.28 0.27 0.27 0.33 0.32 0.38 0.44 0.39 0.44 0.64 0.71 0.79 0.73 0.71 0.78 0.87 0.93 0.93 0.87 0.93 0.98 0.99 1.05 1.07
0.47 0.44 0.45 0.47 0.43 0.35 0.52 0.53 0.37 0.37 0.43 0.50 0.52 0.54 0.53 0.52 0.42 0.28 0.29 0.18 0.44 0.32 0.37 0.38 0.30 0.30 0.38 0.36 0.36 0.32 0.25 0.28 0.28 0.31 0.32 0.27 0.27 0.31 0.31 0.32 0.27 0.24 0.26 0.28 0.26 0.27 0.26 0.26 0.25 0.26 0.25 0.28 0.30 0.28 0.28 0.27 0.24 0.31 0.36 0.38 0.34 0.31 0.29 0.28 0.29 0.29 0.31 0.30 0.33 0.38 0.45 0.48 0.43 0.53 0.61 0.72 0.73 0.75 0.77 0.84 0.90 0.91 0.94 1.00 1.01 1.00 1.03 1.05
0.47 0.45 0.44 0.49 0.38 0.37 0.36 0.27 0.31 0.43 0.51 0.59 0.56 0.51 0.52 0.45 0.31 0.28 0.24 0.32 0.26 0.35 0.39 0.34 0.30 0.34 0.32 0.31 0.29 0.28 0.27 0.28 0.27 0.29 0.28 0.28 0.26 0.28 0.31 0.27 0.31 0.25 0.26 0.27 0.25 0.27 0.24 0.23 0.26 0.27 0.28 0.29 0.29 0.26 0.28 0.26 0.28 0.30 0.33 0.36 0.35 0.27 0.32 0.29 0.28 0.29 0.28 0.30 0.38 0.44 0.45 0.48 0.38 0.46 0.57 0.63 0.71 0.71 0.73 0.72 0.77 0.84 0.93 1.00 1.05 1.00 1.00 1.07
0.46 0.45 0.43 0.44 0.40 0.44 0.30 0.25 0.28 0.37 0.40 0.48 0.40 0.41 0.42 0.28 0.33 0.24 0.28 0.44 0.18 0.29 0.29 0.31 0.32 0.31 0.31 0.32 0.28 0.22 0.24 0.27 0.29 0.28 0.27 0.23 0.22 0.22 0.25 0.23 0.23 0.20 0.19 0.22 0.21 0.24 0.22 0.24 0.29 0.29 0.30 0.28 0.25 0.25 0.29 0.30 0.29 0.29 0.33 0.32 0.30 0.32 0.31 0.27 0.32 0.30 0.29 0.28 0.38 0.44 0.44 0.37 0.35 0.39 0.50 0.55 0.60 0.75 0.75 0.75 0.76 0.83 0.92 0.94 0.95 0.96 1.00 1.07
0.45 0.44 0.43 0.39 0.39 0.37 0.36 0.31 0.29 0.32 0.36 0.36 0.34 0.38 0.33 0.26 0.22 0.28 0.30 0.39 0.24 0.29 0.30 0.30 0.30 0.29 0.29 0.30 0.25 0.22 0.27 0.24 0.29 0.29 0.29 0.24 0.20 0.21 0.25 0.25 0.25 0.22 0.18 0.21 0.20 0.18 0.20 0.26 0.32 0.31 0.26 0.28 0.28 0.26 0.27 0.26 0.29 0.28 0.31 0.32 0.30 0.27 0.26 0.25 0.30 0.32 0.32 0.35 0.37 0.35 0.39 0.33 0.38 0.43 0.51 0.53 0.50 0.57 0.65 0.66 0.67 0.75 0.87 0.93 0.93 0.98 1.04 1.08
0.44 0.43 0.39 0.35 0.39 0.39 0.36 0.39 0.39 0.37 0.37 0.42 0.33 0.32 0.30 0.23 0.21 0.41 0.31 0.32 0.34 0.32 0.32 0.30 0.30 0.29 0.29 0.26 0.25 0.22 0.23 0.28 0.27 0.29 0.29 0.23 0.19 0.19 0.21 0.25 0.27 0.23 0.23 0.22 0.19 0.17 0.18 0.25 0.29 0.29 0.22 0.29 0.29 0.28 0.31 0.30 0.30 0.29 0.28 0.31 0.31 0.31 0.31 0.28 0.29 0.27 0.29 0.32 0.36 0.43 0.33 0.29 0.30 0.37 0.46 0.47 0.44 0.47 0.58 0.64 0.70 0.72 0.82 0.85 0.90 0.98 1.05 1.12
0.45 0.40 0.40 0.42 0.43 0.41 0.40 0.41 0.43 0.43 0.39 0.36 0.30 0.27 0.22 0.21 0.24 0.31 0.34 0.34 0.36 0.36 0.29 0.29 0.29 0.29 0.27 0.27 0.28 0.24 0.24 0.26 0.29 0.29 0.27 0.23 0.17 0.19 0.19 0.21 0.26 0.25 0.23 0.18 0.20 0.21 0.24 0.28 0.32 0.30 0.28 0.32 0.33 0.34 0.36 0.34 0.31 0.29 0.28 0.33 0.30 0.29 0.37 0.31 0.35 0.34 0.31 0.31 0.31 0.33 0.31 0.38 0.37 0.44 0.47 0.50 0.45 0.48 0.51 0.53 0.62 0.68 0.70 0.75 0.74 0.84 1.02 1.12
0.44 0.37 0.42 0.36 0.35 0.41 0.51 0.48 0.46 0.45 0.40 0.32 0.26 0.23 0.21 0.24 0.21 0.30 0.38 0.40 0.38 0.34 0.34 0.35 0.29 0.27 0.26 0.24 0.27 0.25 0.25 0.29 0.28 0.27 0.26 0.23 0.20 0.18 0.23 0.22 0.23 0.22 0.22 0.20 0.22 0.23 0.27 0.26 0.33 0.31 0.32 0.32 0.32 0.35 0.35 0.34 0.25 0.30 0.28 0.26 0.30 0.34 0.36 0.32 0.31 0.34 0.34 0.32 0.30 0.38 0.36 0.37 0.43 0.43 0.47 0.48 0.50 0.51 0.50 0.49 0.52 0.56 0.66 0.70 0.77 0.79 0.94 1.10
0.41 0.41 0.33 0.35 0.38 0.41 0.50 0.58 0.50 0.41 0.38 0.31 0.24 0.20 0.24 0.25 0.25 0.31 0.41 0.36 0.39 0.40 0.40 0.30 0.28 0.25 0.24 0.23 0.23 0.24 0.27 0.27 0.29 0.28 0.24 0.23 0.20 0.20 0.22 0.23 0.22 0.22 0.25 0.25 0.26 0.30 0.26 0.25 0.32 0.30 0.27 0.32 0.32 0.33 0.34 0.34 0.35 0.34 0.28 0.29 0.33 0.35 0.33 0.31 0.28 0.31 0.29 0.26 0.29 0.33 0.33 0.34 0.38 0.34 0.48 0.46 0.49 0.49 0.50 0.48 0.46 0.46 0.53 0.58 0.65 0.78 0.95 1.07
0.42 0.41 0.40 0.37 0.35 0.40 0.56 0.63 0.50 0.40 0.34 0.27 0.23 0.22 0.27 0.23 0.28 0.30 0.43 0.44 0.41 0.40 0.38 0.33 0.30 0.30 0.25 0.24 0.22 0.24 0.26 0.22 0.27 0.28 0.26 0.24 0.18 0.22 0.21 0.21 0.21 0.23 0.28 0.32 0.30 0.30 0.29 0.25 0.30 0.32 0.31 0.33 0.33 0.31 0.31 0.33 0.35 0.31 0.31 0.36 0.27 0.26 0.24 0.28 0.29 0.25 0.27 0.27 0.27 0.30 0.33 0.31 0.34 0.36 0.41 0.43 0.46 0.49 0.52 0.53 0.54 0.54 0.55 0.57 0.61 0.71 0.80 0.95
0.45 0.51 0.37 0.41 0.45 0.41 0.62 0.61 0.44 0.37 0.28 0.23 0.22 0.22 0.24 0.26 0.29 0.32 0.41 0.47 0.46 0.40 0.35 0.38 0.36 0.32 0.27 0.24 0.25 0.25 0.26 0.21 0.25 0.26 0.24 0.24 0.18 0.22 0.20 0.22 0.20 0.24 0.31 0.35 0.33 0.35 0.32 0.27 0.31 0.36 0.34 0.35 0.33 0.29 0.24 0.26 0.32 0.33 0.34 0.32 0.34 0.32 0.27 0.27 0.29 0.30 0.32 0.31 0.31 0.32 0.36 0.34 0.40 0.41 0.45 0.46 0.49 0.52 0.49 0.50 0.53 0.53 0.53 0.58 0.59 0.65 0.89 0.95
0.43 0.44 0.36 0.61 0.55 0.48 0.61 0.53 0.40 0.35 0.25 0.20 0.22 0.23 0.29 0.24 0.23 0.32 0.43 0.48 0.48 0.41 0.42 0.46 0.40 0.33 0.30 0.27 0.26 0.25 0.26 0.26 0.23 0.25 0.23 0.25 0.19 0.24 0.21 0.23 0.22 0.23 0.31 0.36 0.34 0.36 0.32 0.33 0.28 0.34 0.39 0.36 0.28 0.29 0.25 0.27 0.26 0.28 0.28 0.28 0.29 0.30 0.37 0.35 0.37 0.32 0.30 0.28 0.30 0.30 0.29 0.32 0.39 0.43 0.48 0.49 0.50 0.48 0.47 0.46 0.47 0.51 0.52 0.51 0.59 0.62 0.74 0.91
0.38 0.38 0.42 0.69 0.66 0.69 0.61 0.44 0.36 0.29 0.24 0.24 0.26 0.26 0.29 0.26 0.25 0.29 0.42 0.48 0.49 0.49 0.46 0.45 0.45 0.40 0.36 0.27 0.23 0.27 0.28 0.26 0.24 0.23 0.26 0.26 0.24 0.23 0.27 0.27 0.26 0.26 0.28 0.32 0.32 0.34 0.32 0.33 0.30 0.33 0.34 0.33 0.31 0.34 0.32 0.31 0.30 0.29 0.28 0.28 0.32 0.31 0.26 0.26 0.29 0.36 0.33 0.29 0.30 0.30 0.28 0.36 0.45 0.51 0.50 0.49 0.49 0.49 0.48 0.46 0.51 0.54 0.56 0.46 0.59 0.68 0.68 0.81
0.34 0.30 0.38 0.67 0.77 0.66 0.50 0.35 0.33 0.34 0.27 0.23 0.23 0.26 0.27 0.31 0.28 0.31 0.38 0.48 0.46 0.44 0.50 0.51 0.49 0.47 0.48 0.44 0.29 0.26 0.27 0.28 0.26 0.23 0.26 0.26 0.29 0.29 0.32 0.32 0.29 0.31 0.29 0.28 0.31 0.36 0.36 0.36 0.33 0.33 0.33 0.35 0.35 0.37 0.37 0.33 0.30 0.32 0.29 0.30 0.32 0.30 0.30 0.28 0.24 0.32 0.36 0.36 0.38 0.34 0.28 0.37 0.48 0.49 0.50 0.47 0.47 0.50 0.56 0.55 0.53 0.57 0.59 0.62 0.59 0.57 0.67 0.76
0.39 0.37 0.74 0.79 0.82 0.65 0.46 0.32 0.35 0.31 0.27 0.27 0.30 0.30 0.30 0.30 0.29 0.32 0.36 0.45 0.45 0.46 0.45 0.44 0.47 0.47 0.49 0.45 0.42 0.32 0.25 0.25 0.28 0.26 0.26 0.27 0.30 0.32 0.36 0.34 0.34 0.32 0.31 0.29 0.34 0.38 0.32 0.29 0.32 0.34 0.40 0.41 0.41 0.37 0.38 0.37 0.33 0.30 0.31 0.32 0.29 0.26 0.30 0.31 0.32 0.33 0.32 0.36 0.32 0.30 0.28 0.39 0.48 0.53 0.52 0.54 0.53 0.53 0.54 0.56 0.52 0.50 0.63 0.61 0.60 0.61 0.69 0.93
0.32 0.39 0.52 0.66 0.74 0.62 0.45 0.29 0.27 0.29 0.29 0.30 0.30 0.29 0.31 0.29 0.28 0.31 0.36 0.42 0.41 0.45 0.41 0.43 0.41 0.46 0.46 0.50 0.46 0.37 0.29 0.25 0.29 0.28 0.26 0.26 0.28 0.36 0.36 0.36 0.36 0.33 0.31 0.30 0.30 0.34 0.28 0.31 0.32 0.31 0.32 0.35 0.35 0.37 0.37 0.38 0.34 0.30 0.29 0.30 0.31 0.32 0.32 0.32 0.32 0.36 0.31 0.33 0.34 0.33 0.29 0.41 0.50 0.56 0.58 0.57 0.56 0.56 0.56 0.61 0.61 0.56 0.59 0.56 0.65 0.71 0.66 0.86
0.35 0.37 0.37 0.52 0.63 0.56 0.40 0.38 0.36 0.33 0.32 0.30 0.30 0.28 0.28 0.27 0.30 0.31 0.35 0.41 0.49 0.46 0.42 0.39 0.41 0.45 0.45 0.48 0.47 0.43 0.45 0.29 0.27 0.30 0.29 0.28 0.27 0.34 0.34 0.33 0.37 0.33 0.33 0.35 0.35 0.37 0.30 0.33 0.32 0.27 0.26 0.27 0.26 0.27 0.29 0.32 0.30 0.30 0.29 0.30 0.33 0.34 0.33 0.31 0.27 0.32 0.29 0.34 0.35 0.34 0.36 0.53 0.60 0.61 0.60 0.58 0.59 0.60 0.57 0.58 0.61 0.70 0.67 0.64 0.58 0.59 0.70 0.85
0.41 0.35 0.49 0.33 0.42 0.49 0.43 0.44 0.41 0.42 0.42 0.39 0.33 0.31 0.30 0.28 0.30 0.32 0.41 0.43 0.50 0.52 0.49 0.44 0.39 0.40 0.42 0.46 0.43 0.40 0.42 0.41 0.32 0.30 0.30 0.27 0.26 0.30 0.33 0.36 0.37 0.34 0.35 0.48 0.40 0.35 0.31 0.32 0.33 0.30 0.29 0.28 0.33 0.36 0.39 0.35 0.33 0.29 0.29 0.28 0.28 0.33 0.34 0.34 0.36 0.34 0.31 0.34 0.33 0.36 0.39 0.47 0.52 0.56 0.54 0.55 0.58 0.58 0.59 0.64 0.60 0.63 0.65 0.68 0.66 0.65 0.74 0.98
0.47 0.37 0.59 0.61 0.50 0.41 0.39 0.37 0.31 0.37 0.40 0.49 0.43 0.45 0.35 0.29 0.32 0.37 0.46 0.40 0.47 0.50 0.48 0.44 0.41 0.33 0.36 0.42 0.42 0.40 0.45 0.43 0.40 0.39 0.32 0.28 0.28 0.30 0.33 0.36 0.37 0.38 0.53 0.45 0.39 0.35 0.32 0.28 0.29 0.31 0.29 0.31 0.36 0.39 0.39 0.37 0.33 0.32 0.30 0.30 0.31 0.33 0.35 0.33 0.31 0.30 0.39 0.37 0.32 0.39 0.40 0.39 0.44 0.48 0.52 0.54 0.56 0.58 0.60 0.62 0.63 0.62 0.59 0.56 0.63 0.71 0.69 0.74
0.42 0.54 0.64 0.72 0.59 0.48 0.34 0.32 0.32 0.30 0.34 0.44 0.48 0.54 0.46 0.39 0.32 0.33 0.49 0.48 0.48 0.50 0.44 0.44 0.41 0.39 0.39 0.38 0.43 0.42 0.43 0.40 0.42 0.39 0.34 0.31 0.30 0.30 0.32 0.34 0.33 0.51 0.45 0.41 0.45 0.36 0.33 0.30 0.33 0.30 0.30 0.30 0.32 0.32 0.36 0.40 0.40 0.36 0.35 0.36 0.33 0.32 0.33 0.31 0.33 0.34 0.35 0.33 0.33 0.43 0.45 0.40 0.42 0.47 0.54 0.56 0.56 0.57 0.58 0.61 0.66 0.67 0.63 0.66 0.67 0.68 0.72 0.78
0.48 0.46 0.58 0.69 0.55 0.58 0.59 0.58 0.53 0.41 0.38 0.39 0.48 0.55 0.52 0.50 0.43 0.39 0.42 0.49 0.44 0.44 0.47 0.41 0.41 0.42 0.42 0.41 0.43 0.45 0.45 0.43 0.47 0.54 0.45 0.58 0.56 0.41 0.33 0.34 0.36 0.50 0.38 0.40 0.41 0.38 0.35 0.31 0.33 0.31 0.28 0.29 0.29 0.32 0.35 0.36 0.37 0.38 0.39 0.38 0.36 0.34 0.32 0.31 0.31 0.33 0.33 0.33 0.34 0.47 0.44 0.45 0.47 0.50 0.53 0.56 0.62 0.64 0.64 0.65 0.66 0.68 0.66 0.63 0.61 0.58 0.57 0.65
0.42 0.40 0.46 0.61 0.58 0.56 0.59 0.61 0.59 0.49 0.44 0.51 0.43 0.50 0.54 0.58 0.55 0.52 0.46 0.43 0.43 0.40 0.46 0.42 0.44 0.46 0.45 0.43 0.42 0.44 0.51 0.57 0.58 0.51 0.64 0.59 0.55 0.52 0.40 0.40 0.36 0.36 0.40 0.39 0.38 0.39 0.35 0.31 0.32 0.34 0.32 0.33 0.37 0.38 0.34 0.32 0.32 0.32 0.36 0.39 0.40 0.39 0.34 0.31 0.31 0.32 0.33 0.33 0.34 0.35 0.45 0.41 0.46 0.51 0.54 0.58 0.64 0.69 0.69 0.66 0.68 0.69 0.67 0.63 0.59 0.57 0.58 0.58
0.46 0.47 0.47 0.48 0.44 0.51 0.57 0.62 0.56 0.56 0.52 0.53 0.55 0.58 0.59 0.60 0.60 0.59 0.52 0.50 0.48 0.50 0.45 0.41 0.46 0.46 0.46 0.45 0.43 0.45 0.58 0.67 0.67 0.65 0.63 0.63 0.59 0.67 0.50 0.47 0.45 0.43 0.41 0.39 0.38 0.37 0.35 0.32 0.37 0.36 0.31 0.29 0.31 0.28 0.30 0.34 0.33 0.31 0.32 0.35 0.34 0.34 0.32 0.33 0.34 0.35 0.34 0.33 0.33 0.36 0.39 0.41 0.49 0.54 0.59 0.63 0.66 0.64 0.66 0.69 0.70 0.69 0.68 0.64 0.61 0.61 0.60 0.56
0.49 0.45 0.47 0.52 0.41 0.40 0.49 0.55 0.57 0.54 0.49 0.56 0.57 0.57 0.54 0.55 0.56 0.60 0.55 0.63 0.60 0.56 0.65 0.64 0.54 0.55 0.54 0.47 0.51 0.66 0.68 0.67 0.69 0.68 0.66 0.67 0.70 0.68 0.60 0.65 0.59 0.50 0.45 0.43 0.46 0.39 0.37 0.34 0.32 0.32 0.29 0.27 0.33 0.35 0.35 0.38 0.36 0.29 0.26 0.26 0.31 0.33 0.35 0.37 0.38 0.39 0.39 0.40 0.39 0.37 0.39 0.47 0.52 0.57 0.60 0.63 0.64 0.66 0.70 0.74 0.70 0.67 0.66 0.66 0.65 0.62 0.59 0.65
Wind_Speed
15 15 15 15 14 14 14 14 14 14 14 14 14 14 14 14 14 14 14 14 14 15 14 14 13 12 11 11 10 9 9 8 8 9 10 10 8 8 7 8 8 10 9 8 8 8 7 7 5 5 4 4 4 3 5 4 3 3 1 1 1 3 6 4 4 6 7 7 8 7 7 7 8 8 9 9 8 9 9 8 8 10 11 11 13 14 13 13
15 15 16 15 15 15 14 14 14 15 15 15 14 14 14 14 15 14 15 15 15 15 14 13 12 11 10 10 9 8 8 8 9 10 11 11 9 9 9 10 9 10 10 9 9 9 8 7 6 6 5 4 5 5 5 4 3 3 0 1 3 4 5 4 5 7 7 8 7 7 7 7 8 8 8 7 7 8 9 9 10 11 12 12 13 13 13 12
16 16 16 16 16 16 15 15 15 15 15 15 15 15 15 15 15 15 15 15 15 15 14 12 11 10 9 9 8 7 7 7 9 10 11 12 11 11 11 11 11 10 11 11 10 10 8 7 6 6 6 5 5 5 4 4 4 2 2 2 4 5 5 5 7 8 8 8 8 7 7 7 6 6 6 6 7 7 8 9 10 11 11 11 12 12 12 12
17 17 17 17 17 16 16 16 15 15 16 16 16 15 15 15 15 15 15 15 14 14 12 11 9 9 8 8 7 6 6 7 7 8 9 11 12 12 12 12 12 11 12 11 11 9 8 7 5 6 7 6 5 5 5 5 3 1 4 4 5 3 4 6 7 8 8 8 8 7 7 7 6 5 5 5 6 7 7 8 9 10 11 11 12 11 11 11
18 18 18 18 17 17 17 17 16 16 16 16 16 16 16 16 16 15 15 15 13 12 11 10 9 8 7 7 6 6 5 4 3 4 6 9 12 12 13 13 13 13 12 12 11 9 8 7 6 6 7 7 6 4 6 4 1 1 4 5 4 4 5 6 8 8 8 8 7 7 6 6 6 7 6 4 4 4 7 9 9 10 10 11 11 11 11 11
18 18 19 19 18 18 18 17 17 17 17 17 17 16 16 16 16 15 15 14 13 12 10 9 8 7 7 6 6 6 5 3 1 1 5 8 11 12 13 14 14 14 13 12 11 10 9 8 7 7 6 7 7 4 5 4 0 1 3 3 3 5 6 7 8 7 7 7 7 6 6 5 6 7 7 6 4 4 7 10 9 9 10 11 11 10 10 10
19 19 19 19 19 19 18 18 18 17 17 17 17 17 17 17 16 15 15 14 13 11 10 10 9 8 7 6 6 6 8 8 5 2 5 8 10 11 13 14 14 14 14 13 12 11 9 9 8 7 6 6 6 6 6 5 1 1 3 5 4 5 7 7 7 8 8 7 6 6 6 5 5 6 7 8 7 6 8 9 9 9 10 10 10 10 10 9
19 19 19 19 19 19 19 19 19 18 18 18 18 17 17 17 17 16 15 14 13 11 11 10 10 9 8 7 7 7 10 11 8 4 5 8 10 12 14 14 15 15 15 14 13 12 10 11 9 7 5 4 5 7 6 5 2 4 4 5 6 6 8 7 8 8 8 7 6 7 7 6 6 5 6 7 7 8 9 9 9 9 9 9 9 9 9 8
20 20 20 20 20 20 20 20 20 19 19 19 19 18 17 17 17 16 15 14 13 12 11 10 10 10 9 8 8 8 8 9 8 6 6 8 11 13 15 15 16 16 16 15 14 12 11 11 9 8 5 2 6 6 5 6 4 5 4 5 7 7 8 8 9 8 7 6 6 7 7 7 7 7 7 7 7 8 9 9 9 9 9 9 8 9 9 8
20 20 20 20 20 20 20 20 20 20 20 20 19 19 18 18 17 17 16 14 13 12 12 11 10 10 10 9 9 8 5 6 7 7 7 9 11 14 15 15 17 17 16 16 15 13 12 11 8 8 5 3 6 7 4 7 5 5 5 6 8 8 8 9 10 8 7 7 7 7 7 8 8 6 6 6 7 8 9 9 8 9 8 8 8 8 8 7
20 20 21 21 21 21 20 20 20 21 21 20 20 20 19 18 18 17 16 15 14 13 12 11 11 11 11 11 11 10 6 6 7 7 7 9 12 14 15 16 17 18 18 16 16 14 12 11 7 7 5 2 8 7 4 7 7 7 8 8 8 8 9 9 9 7 7 8 8 8 9 9 7 6 6 7 7 8 9 9 8 9 8 8 8 8 7 6
20 20 21 21 21 21 21 21 21 21 21 21 21 20 20 19 18 18 16 15 14 14 13 12 11 11 12 12 14 13 8 7 8 8 8 9 12 14 15 16 18 19 18 16 15 14 12 10 7 8 6 5 7 6 5 8 8 8 9 8 8 8 9 8 7 6 6 7 7 8 9 8 5 6 7 8 8 8 8 8 9 8 8 7 7 7 6 6
20 21 21 21 22 22 22 22 21 21 21 21 22 21 21 20 19 18 17 16 15 14 13 13 11 11 12 12 15 17 12 9 9 10 10 10 12 13 15 16 18 19 18 16 15 13 12 10 8 10 10 6 6 6 6 8 8 9 10 8 8 8 7 8 7 7 7 6 7 7 5 5 5 6 8 8 8 8 8 8 8 8 7 6 6 6 7 6
21 21 21 21 22 22 22 22 22 22 22 22 22 22 22 21 20 19 18 16 16 15 14 13 12 12 12 13 14 16 15 12 10 12 12 12 13 13 15 17 17 19 18 16 14 12 11 11 9 9 11 9 7 6 6 8 8 9 10 8 8 7 7 8 8 7 6 5 6 5 2 4 5 6 7 8 8 8 8 8 7 7 7 6 6 6 6 6
21 21 21 21 22 22 23 23 22 22 22 22 22 22 22 22 21 19 18 17 17 16 16 14 13 12 13 15 15 14 15 14 12 14 14 14 14 14 16 17 17 18 18 16 13 12 12 12 10 9 10 10 9 9 9 9 9 10 10 9 8 7 8 8 7 8 7 5 6 5 2 5 5 6 7 7 7 8 8 8 7 8 7 6 6 6 6 6
22 22 22 22 22 22 23 23 23 23 22 22 22 22 22 22 21 20 19 18 17 17 16 14 13 14 13 13 13 14 16 16 15 15 15 16 15 14 16 17 17 18 18 16 12 11 13 13 11 10 10 9 8 11 12 10 9 10 9 8 9 9 8 8 7 8 7 5 6 5 3 5 5 6 7 7 7 8 7 7 7 8 8 6 5 5 6 6
23 23 23 22 22 23 23 23 23 23 23 23 23 22 21 21 21 20 19 18 17 17 17 15 13 14 15 13 13 15 16 17 17 16 17 17 15 15 16 17 17 18 19 17 12 12 15 15 12 11 11 9 9 12 12 11 11 11 10 8 9 10 8 8 8 8 7 5 5 4 3 6 6 6 7 7 8 7 6 7 7 7 7 6 5 5 5 5
24 24 23 23 23 23 23 23 23 23 23 23 23 22 21 21 21 20 19 17 17 17 17 17 15 14 15 16 17 16 17 18 18 17 17 17 16 16 17 17 17 18 18 16 14 14 16 16 14 11 11 11 12 13 12 12 12 11 11 9 10 11 9 8 8 9 8 6 5 5 4 7 7 6 7 7 8 7 6 6 6 7 7 6 5 5 5 5
25 24 24 24 24 23 23 23 23 23 23 23 22 22 20 19 19 19 19 18 17 18 18 17 18 16 13 15 18 16 17 18 18 19 19 18 17 17 18 17 17 19 18 15 15 17 16 15 14 13 13 13 14 15 13 13 13 12 12 11 11 11 10 10 8 8 9 8 6 6 6 8 7 7 8 8 8 7 6 7 6 6 6 6 6 5 5 5
25 25 25 25 24 24 24 23 23 23 23 22 21 19 18 16 15 16 18 20 21 21 21 19 20 20 16 14 16 17 18 19 19 20 20 19 18 19 19 18 18 19 18 15 15 17 17 15 15 14 13 14 16 16 15 13 13 12 11 12 13 12 11 11 9 9 10 8 7 6 7 9 8 7 8 8 9 8 7 8 7 6 6 6 6 6 5 6
26 26 25 25 25 25 24 24 23 22 22 22 20 19 18 17 15 16 18 21 23 24 25 24 23 23 19 16 16 19 20 19 20 21 21 20 20 19 19 19 18 18 19 17 16 17 17 16 16 15 14 14 16 16 15 14 14 13 11 10 13 13 11 12 12 11 10 9 7 6 6 8 8 8 9 9 9 8 8 8 8 8 7 6 6 6 6 6
26 26 26 26 25 25 25 24 23 22 21 20 20 20 20 19 18 18 19 21 23 24 25 26 25 25 22 18 18 20 20 20 22 22 22 22 20 20 20 20 18 17 19 18 17 17 17 17 17 16 15 14 15 16 17 17 16 14 12 11 12 13 11 12 13 13 11 9 8 8 8 8 8 9 9 10 9 9 9 9 8 8 9 7 7 7 6 6
26 26 26 26 25 26 25 24 24 22 20 19 19 21 21 21 20 19 20 21 23 24 25 26 27 26 24 21 19 21 22 21 23 23 24 24 22 21 21 20 19 18 19 19 18 18 17 17 18 17 16 16 16 16 17 17 14 13 12 11 11 12 12 11 12 14 13 10 9 10 10 8 9 10 10 11 10 9 10 10 10 9 9 8 8 8 7 7
26 26 26 25 26 25 25 25 22 19 17 18 20 20 21 21 20 19 20 21 22 24 26 26 27 27 26 23 21 22 23 23 24 24 25 25 23 22 21 21 20 19 19 20 21 19 17 17 17 17 16 17 17 16 16 15 12 13 15 14 11 11 13 11 12 14 14 12 10 10 10 9 10 11 10 11 11 11 11 11 11 11 10 10 10 9 9 8
26 26 26 25 25 25 25 23 19 16 17 19 19 18 19 19 18 18 18 20 21 22 25 26 27 27 27 26 23 23 23 24 25 25 26 26 25 22 20 20 20 19 20 22 21 19 18 17 18 18 17 18 17 16 17 16 12 12 16 18 14 12 12 12 13 13 12 12 12 12 11 9 11 13 11 10 12 12 13 12 13 12 11 11 11 11 11 10
26 26 25 25 25 25 24 19 16 17 18 18 17 15 16 17 17 17 18 19 19 20 22 24 25 26 26 27 26 24 23 25 26 25 26 27 26 22 20 20 20 20 21 21 19 17 17 18 19 19 19 19 18 15 16 16 13 12 14 18 17 14 14 14 15 15 13 13 13 14 13 10 12 14 13 12 13 14 14 14 14 13 12 12 12 12 12 12
27 26 26 25 24 23 21 19 18 19 19 18 17 15 15 15 16 17 17 18 18 19 21 22 22 24 26 27 27 25 23 24 26 27 27 28 28 24 21 20 20 20 20 19 18 17 17 19 19 20 20 20 18 16 15 16 15 13 12 15 16 14 13 13 15 15 13 13 13 14 15 13 13 14 15 15 14 15 16 15 15 14 14 14 14 14 13 13
27 26 26 25 24 23 21 21 21 20 20 19 18 17 16 15 15 16 16 16 15 16 20 20 20 21 24 27 28 26 23 23 25 27 28 28 28 26 23 22 21 21 20 20 19 18 18 19 19 21 21 18 18 18 16 17 17 13 10 12 16 16 13 12 12 12 11 12 13 15 16 15 13 12 14 16 16 17 17 17 16 16 16 16 15 16 15 15
27 27 26 25 25 23 21 21 21 20 20 19 19 18 17 16 16 16 17 17 15 15 18 19 19 21 23 26 28 27 25 24 25 26 28 29 29 27 23 22 22 22 22 22 20 18 19 19 19 20 21 18 17 18 18 18 17 15 12 11 14 16 14 13 13 11 11 13 14 14 14 13 12 11 12 15 16 17 17 17 17 18 18 18 17 17 16 15
28 27 26 25 24 22 20 21 21 20 19 19 18 18 18 17 16 16 18 18 16 16 18 19 20 22 24 25 25 27 28 26 24 26 28 29 30 29 24 22 23 22 22 22 21 20 19 19 18 18 20 18 17 18 18 19 18 15 13 13 13 12 11 12 13 13 12 13 14 15 14 14 13 12 13 15 17 18 17 16 17 18 19 19 18 18 17 16
28 27 26 25 24 22 20 21 20 18 17 18 17 17 18 17 17 18 18 17 17 18 18 18 21 24 25 25 24 27 29 26 25 28 28 28 30 29 25 23 23 22 22 21 21 22 21 19 17 17 19 19 17 18 18 19 19 14 12 14 13 10 10 11 13 13 13 12 13 16 17 16 15 14 13 14 17 18 17 16 17 18 18 18 19 19 18 17
28 28 27 26 25 23 22 22 21 19 18 18 17 18 18 18 19 20 18 15 15 18 19 19 21 24 26 26 24 26 28 26 26 29 28 28 29 29 27 24 23 22 22 21 20 21 21 20 18 17 20 21 19 17 18 19 19 15 12 14 14 12 11 11 12 12 13 13 13 15 16 17 16 15 14 13 14 16 17 15 17 19 19 18 19 19 18 18
29 28 27 26 25 24 24 24 22 20 20 19 19 18 19 19 20 20 20 18 14 16 18 19 22 24 26 26 25 26 28 26 26 28 28 28 28 29 29 26 25 23 21 20 20 20 19 19 20 19 20 23 21 17 17 18 18 17 14 14 15 13 11 11 11 11 13 14 15 15 15 15 14 13 14 13 11 14 17 16 16 17 19 18 19 20 19 19
29 28 26 25 24 24 24 24 22 21 20 19 19 20 21 22 21 20 22 21 17 14 16 19 21 24 26 26 26 27 27 26 27 28 27 29 28 28 29 29 28 25 21 21 21 20 18 17 20 20 19 22 21 19 18 18 18 18 16 15 15 14 12 12 11 11 12 13 14 16 15 13 11 9 10 11 9 8 12 12 11 11 15 16 17 20 21 20
29 27 25 24 24 24 24 23 23 22 20 21 20 21 23 23 21 21 21 22 20 16 15 17 20 23 25 26 26 28 27 25 27 29 27 29 29 28 29 29 28 26 24 21 20 21 20 18 19 21 20 21 20 18 19 19 18 17 17 17 17 15 14 13 13 12 13 12 12 13 12 11 10 9 11 12 10 8 10 10 9 9 11 13 14 18 20 20
26 24 23 23 23 23 23 23 23 22 22 22 22 23 24 22 21 20 18 20 21 18 16 18 21 22 23 24 26 29 29 25 26 28 27 29 30 29 29 28 28 29 27 21 19 20 20 18 20 22 21 23 21 19 18 18 17 16 16 18 18 16 15 14 14 14 13 13 11 11 12 12 12 13 13 13 13 12 12 13 14 12 11 12 13 15 18 19
24 23 23 23 23 23 22 22 22 23 23 23 23 24 23 22 23 22 19 19 20 18 17 19 22 23 22 24 25 28 29 26 26 26 26 28 30 30 30 29 30 32 29 23 20 19 18 16 21 25 23 22 23 21 19 18 18 17 15 16 16 16 16 14 13 12 13 13 12 13 14 13 11 11 12 12 12 10 11 12 14 13 12 12 12 14 17 18
23 22 22 23 24 22 22 22 22 22 23 23 25 25 23 23 24 25 23 20 20 20 19 19 21 23 24 23 24 28 29 26 26 26 25 26 28 30 31 29 29 32 31 27 22 19 18 15 19 26 24 21 22 23 20 20 21 20 15 14 15 16 17 15 12 11 12 12 11 12 14 13 12 11 10 11 12 10 9 9 10 11 11 12 13 13 16 18
22 20 20 21 21 21 22 22 22 22 23 24 24 24 23 23 24 26 25 22 21 22 21 20 19 22 24 24 24 26 29 28 26 25 24 25 25 29 31 28 28 32 32 29 23 19 19 15 15 24 25 21 22 23 21 20 21 21 18 15 15 16 15 14 14 12 12 11 10 11 12 11 11 11 10 11 12 11 8 6 7 9 10 12 12 13 14 17
20 19 18 17 18 20 21 22 22 23 23 24 24 23 22 23 24 27 28 24 21 22 23 21 20 20 22 25 25 25 27 29 27 25 24 24 24 26 30 29 28 31 32 30 26 21 19 16 15 21 24 22 21 22 23 21 20 20 19 16 15 14 13 13 13 13 13 12 10 10 10 7 7 7 8 9 8 8 8 9 9 9 11 11 11 12 13 15
19 19 18 17 17 19 20 21 22 23 23 23 24 23 23 23 23 25 28 25 22 24 25 23 22 19 17 21 25 24 25 27 28 26 24 25 25 24 28 30 28 29 30 29 27 23 19 17 17 19 22 23 22 22 23 23 22 21 19 17 15 14 14 13 12 13 13 12 11 11 9 5 5 6 7 7 7 6 8 9 9 9 9 10 10 11 12 14
18 18 17 18 19 19 20 21 21 22 22 23 23 24 23 23 23 25 26 25 23 23 26 25 24 22 19 20 23 24 24 25 27 28 25 25 27 24 26 30 30 28 28 28 27 25 20 16 18 20 21 22 23 23 23 24 23 22 21 20 17 15 15 15 13 12 13 14 13 12 10 7 7 8 7 7 8 7 8 9 10 10 9 9 10 10 11 12
19 19 18 19 20 21 21 21 21 22 22 22 23 25 25 23 24 25 25 25 23 23 25 26 25 24 23 21 21 23 25 24 25 29 27 26 27 26 25 30 31 29 27 27 27 25 22 18 17 19 19 20 22 22 22 24 24 23 23 22 21 18 18 18 15 13 14 15 14 13 11 9 8 9 8 8 9 10 10 10 12 12 10 10 10 9 10 9
20 21 21 21 21 22 22 21 21 22 22 22 23 25 25 25 25 26 26 25 24 23 24 26 26 25 24 23 21 21 23 23 24 27 27 26 26 27 27 29 31 29 26 27 27 25 23 20 18 18 18 19 20 20 21 23 23 22 22 23 23 22 21 20 17 15 16 16 15 14 12 10 9 9 8 9 9 9 10 10 11 12 11 11 11 10 10 11
19 20 21 22 22 23 23 22 21 21 21 22 24 24 24 25 26 27 27 26 25 24 23 24 26 26 25 24 23 21 21 22 22 23 26 26 24 27 29 28 30 30 26 24 27 26 24 22 20 19 19 20 20 20 20 21 22 22 22 24 24 23 23 21 18 17 17 16 16 16 13 10 11 11 10 10 11 11 13 13 12 11 10 11 12 12 12 12
18 17 18 20 22 23 23 24 24 22 20 21 22 23 24 25 25 25 26 26 26 25 23 21 24 26 26 26 25 22 21 22 21 19 22 26 24 24 28 28 29 30 24 21 24 25 24 25 24 22 22 22 21 20 20 20 21 23 23 25 24 23 22 21 19 19 17 17 18 18 16 14 14 15 14 14 13 12 12 12 12 13 12 12 13 14 13 13
18 17 16 15 19 22 22 23 24 23 22 21 19 20 23 24 24 23 24 25 27 27 24 21 23 25 26 27 26 24 22 22 22 19 20 25 24 23 26 28 28 27 24 23 25 25 23 25 28 27 26 26 24 21 19 20 20 21 22 24 25 24 23 22 22 20 17 17 18 19 20 20 18 17 17 15 14 13 11 11 12 13 14 15 14 15 15 15
19 20 18 15 16 20 20 20 22 23 25 24 20 19 21 23 24 23 22 23 27 28 25 22 24 25 25 26 26 25 23 22 22 20 18 20 21 22 25 26 25 24 25 27 26 25 25 24 26 28 28 29 29 26 23 21 20 21 22 23 24 25 26 25 24 23 20 19 18 17 18 20 18 17 18 16 15 16 15 14 13 13 15 16 16 16 17 18
19 21 20 18 18 20 19 19 21 22 24 24 22 21 21 21 23 24 22 22 25 28 27 24 23 25 26 25 25 25 23 22 21 18 16 15 16 20 25 26 25 24 26 28 25 24 26 26 25 26 27 27 28 28 28 26 24 23 25 25 24 25 27 27 26 26 25 24 23 20 19 21 20 19 19 18 17 17 17 16 16 17 18 18 18 19 20 20
18 20 21 20 20 21 20 19 19 20 21 22 22 22 21 20 21 22 23 23 23 25 28 28 25 25 26 25 26 27 25 23 22 19 18 16 13 18 23 25 26 26 26 27 26 23 25 26 24 24 24 26 27 27 28 28 27 25 25 26 26 26 26 26 26 26 25 25 25 22 19 20 21 21 21 20 19 19 19 19 19 20 20 20 20 21 22 23
17 20 22 22 22 22 21 19 18 19 20 21 20 21 21 21 19 19 20 22 23 23 24 27 26 25 25 25 25 26 25 24 23 21 20 19 15 16 20 21 25 27 26 26 26 25 25 25 24 24 24 26 26 25 26 27 27 28 28 28 28 27 25 25 24 25 25 24 24 23 21 19 19 19 19 19 19 19 19 19 20 20 19 20 21 21 22 23
17 19 20 21 23 23 23 21 19 19 19 20 21 22 22 21 21 20 19 19 22 23 22 23 22 23 24 23 22 23 23 24 25 23 22 22 19 19 19 19 21 23 23 24 24 24 24 24 25 25 25 25 26 27 26 24 25 27 27 27 28 26 26 25 23 24 24 22 21 21 21 20 18 17 17 17 18 18 17 17 18 18 19 20 22 23 24 24
Wind_Direction
298 298 299 297 294 292 292 292 293 293 293 294 295 297 298 300 301 303 304 304 304 302 299 297 295 295 293 292 292 289 287 279 269 256 242 234 222 211 203 198 196 193 193 192 191 190 185 183 184 175 165 161 156 145 136 135 136 130 125 86 90 80 91 105 120 126 129 125 129 126 116 118 118 118 125 124 114 111 111 112 114 117 123 125 125 128 126 126
297 297 298 297 294 291 290 290 290 291 291 292 293 295 297 298 300 301 302 303 302 301 299 297 295 293 293 292 290 288 286 274 265 256 242 231 218 207 203 198 193 190 189 189 190 185 180 178 171 172 170 164 160 144 141 146 134 126 324 59 96 88 90 91 119 132 131 129 129 125 120 120 122 129 136 128 116 119 118 114 116 121 128 128 128 130 127 128
296 297 296 296 294 291 289 288 288 289 289 290 292 293 295 297 298 299 300 302 301 300 298 295 293 291 291 289 286 284 283 278 267 256 241 226 212 205 200 197 193 188 189 189 187 181 181 185 176 177 179 178 170 155 147 142 140 112 329 186 114 85 95 92 114 127 124 127 125 121 122 125 129 137 145 134 124 129 129 126 128 131 135 135 134 137 136 134
294 296 296 296 294 291 289 288 287 287 287 288 290 291 293 295 296 298 299 301 300 298 296 292 289 287 287 285 281 278 278 279 268 252 235 215 205 201 197 194 190 188 190 190 190 186 188 192 188 185 184 187 176 169 167 135 130 14 33 117 135 105 103 104 124 128 124 127 122 121 124 126 118 112 129 129 126 136 141 140 142 141 140 140 141 142 144 141
292 294 295 295 295 291 288 287 286 286 285 286 287 289 290 292 294 296 297 298 297 295 291 287 285 282 280 279 273 270 269 274 273 246 220 202 197 196 194 191 188 188 188 190 194 192 194 194 190 185 184 193 180 167 183 159 114 210 80 89 109 113 123 119 123 123 124 125 123 125 117 116 107 101 107 105 124 146 145 146 145 145 145 145 145 145 145 144
290 291 293 294 295 293 289 286 285 285 284 284 284 287 288 290 292 293 295 296 293 290 286 281 279 276 273 271 263 257 241 233 323 241 194 188 191 190 190 189 187 189 186 189 193 191 194 192 190 185 175 189 197 201 187 171 324 195 144 125 104 109 126 120 122 131 132 125 123 122 110 113 110 107 107 113 164 167 136 144 146 146 149 146 147 149 148 148
290 290 290 292 293 293 290 286 285 284 283 283 282 284 285 288 289 290 292 292 288 284 281 276 272 269 266 262 256 247 230 240 270 229 176 179 186 187 188 187 186 188 186 189 191 187 189 187 186 184 183 199 207 201 177 160 120 123 145 151 139 125 129 126 134 140 130 120 120 118 115 114 106 112 118 129 162 155 131 142 145 143 147 149 151 153 152 154
290 290 289 290 291 292 291 287 285 283 282 282 281 282 283 285 286 286 288 287 282 278 276 272 267 262 258 254 249 244 238 241 243 210 179 181 186 186 187 186 186 186 187 190 188 185 186 188 188 184 197 218 195 182 176 178 149 129 127 123 130 130 131 133 134 130 120 116 115 112 107 101 98 110 117 121 135 135 135 141 140 143 148 151 156 156 155 158
292 290 289 289 290 291 290 288 286 283 282 281 280 280 280 283 283 282 284 283 277 273 272 269 265 256 248 246 243 248 245 229 214 204 196 191 189 187 187 186 186 186 187 191 189 188 189 190 196 195 206 233 188 177 179 197 174 138 140 130 138 135 133 136 132 127 120 115 113 110 101 100 107 109 109 115 125 133 139 138 139 147 151 153 157 156 159 161
293 291 290 289 289 290 289 287 285 284 282 280 280 279 279 280 280 278 279 278 273 269 268 265 262 252 243 240 235 236 227 201 200 203 200 195 189 186 188 187 186 186 189 190 187 189 192 189 189 197 226 273 193 173 169 191 172 151 165 148 140 137 142 141 130 125 119 120 120 114 110 113 115 107 107 118 128 136 139 140 145 150 151 155 155 153 161 167
295 293 291 290 289 289 289 287 284 283 283 281 279 278 277 278 277 275 273 272 269 264 263 261 258 249 240 237 231 224 211 206 207 200 195 192 187 187 190 188 186 187 188 189 189 193 199 196 198 210 221 214 181 170 160 175 159 156 160 143 142 147 148 139 129 132 129 125 122 119 122 121 107 94 108 123 130 139 143 145 148 150 152 156 154 153 165 173
298 294 291 290 289 289 288 287 284 282 282 281 279 277 276 276 275 272 268 267 263 259 258 257 255 246 239 238 230 221 216 219 215 205 198 191 189 189 190 188 187 188 187 189 194 197 206 210 218 217 197 163 174 171 161 168 158 158 159 150 156 154 146 140 137 142 136 126 128 131 124 114 99 97 116 129 131 136 142 146 149 151 154 156 155 159 173 177
300 297 293 290 288 288 288 287 285 282 281 280 278 277 275 275 273 268 264 262 259 256 254 253 252 244 240 237 228 222 225 226 216 209 200 192 192 190 190 189 188 189 188 193 196 197 209 218 218 210 200 192 176 156 158 167 157 160 165 161 161 157 155 157 149 145 140 131 145 150 123 103 108 115 126 132 133 136 141 147 152 153 156 158 156 165 176 176
302 300 297 292 288 287 286 286 286 283 281 280 277 276 275 274 270 264 260 257 255 252 249 249 248 241 236 233 229 224 222 223 216 207 200 194 193 190 190 190 189 189 191 198 200 201 209 210 214 211 204 207 195 173 175 173 166 170 169 165 170 168 167 169 161 156 149 140 163 165 128 125 126 128 136 137 141 143 145 151 158 158 159 157 154 163 168 170
302 301 299 296 291 287 285 285 285 282 281 280 277 275 275 273 267 261 257 254 253 247 244 245 243 238 236 236 234 222 213 219 218 206 201 196 193 191 189 189 190 190 195 199 201 206 204 198 205 205 196 207 220 209 191 177 175 179 173 174 187 178 169 178 176 175 167 163 187 188 146 145 142 144 147 148 153 150 148 152 159 159 159 158 155 162 161 165
300 300 300 298 295 290 285 283 283 282 281 281 278 275 273 270 265 259 254 252 249 242 237 238 237 235 235 235 229 217 213 217 214 204 200 197 195 192 189 189 191 193 196 199 205 210 200 194 201 204 202 208 214 195 179 180 182 181 185 189 192 186 185 192 188 192 194 191 199 211 207 167 157 159 157 160 160 152 150 154 160 161 159 161 161 164 162 163
299 299 298 298 297 293 288 283 281 281 280 280 279 275 272 268 263 258 252 248 243 235 232 235 237 234 233 232 228 221 216 211 206 201 198 197 197 194 190 191 193 194 196 200 209 209 196 196 201 204 209 203 191 180 175 187 188 183 196 199 193 195 199 196 193 196 200 202 187 185 204 170 158 167 167 171 169 160 158 156 162 166 163 163 164 168 164 165
297 297 297 297 296 295 292 286 281 279 278 278 277 274 271 266 261 255 248 241 234 230 230 233 233 231 231 232 231 225 214 206 202 199 196 197 198 196 192 192 192 191 194 201 206 202 195 197 202 206 209 201 195 192 187 192 189 188 201 201 198 204 206 198 198 199 198 210 194 175 188 170 164 177 174 180 181 173 172 164 165 171 171 168 165 170 166 168
295 295 295 295 295 294 293 289 284 279 277 276 274 272 268 264 258 250 242 235 228 227 228 225 219 224 235 229 224 221 210 203 200 197 196 197 197 195 192 193 193 193 196 200 199 198 195 196 203 211 212 203 199 202 201 196 189 194 208 207 204 208 207 202 208 206 198 204 199 189 195 180 177 188 183 187 188 183 182 175 171 173 181 181 175 175 169 171
294 294 293 293 293 293 292 290 286 281 276 272 271 268 261 259 256 244 238 234 231 232 234 231 221 223 235 229 218 213 204 200 200 198 197 198 196 193 193 194 195 196 199 200 195 195 196 200 206 212 212 203 201 206 210 207 197 198 211 212 209 209 207 208 213 207 197 206 208 197 194 186 185 192 191 194 193 193 193 186 181 177 184 193 185 181 174 174
294 293 292 292 292 292 291 290 286 282 277 269 264 260 255 258 260 252 247 242 237 236 236 235 228 227 232 232 221 208 201 202 202 201 198 198 197 194 193 195 197 198 200 201 197 196 202 208 208 210 211 203 201 205 209 214 212 209 213 213 215 217 216 213 209 203 201 213 218 205 198 195 196 200 200 201 201 204 203 197 194 188 191 198 191 186 182 178
293 293 292 291 291 291 291 289 285 281 276 266 256 253 251 255 260 260 257 250 244 240 236 233 231 230 230 230 220 205 202 205 203 202 198 197 200 198 193 195 199 199 199 200 198 199 207 212 210 210 212 207 204 209 215 219 219 222 221 216 222 220 213 210 204 201 203 212 218 212 214 214 210 212 210 207 210 214 213 210 207 198 197 201 200 197 192 185
292 292 292 291 290 290 289 288 285 279 270 260 253 251 250 253 258 259 256 251 247 242 237 231 227 227 224 221 213 204 207 208 204 202 198 198 201 199 195 197 201 200 200 202 202 202 208 212 212 210 212 212 208 213 225 227 226 232 227 217 220 217 216 218 207 201 205 220 231 218 218 229 224 224 222 215 218 221 219 218 216 210 207 210 212 209 202 198
291 291 291 291 290 289 288 287 282 273 264 257 255 254 252 254 257 258 256 252 248 241 237 231 225 223 220 215 210 208 212 211 206 203 199 199 202 199 200 202 202 203 204 204 205 207 210 212 213 212 213 217 215 212 218 225 228 228 225 220 214 212 220 220 203 200 208 224 234 220 221 237 231 227 226 223 225 226 224 223 221 219 216 216 215 212 212 212
289 290 290 291 290 288 287 283 273 268 266 258 255 257 256 253 252 257 256 251 247 240 233 229 223 220 217 214 212 211 214 212 208 204 200 201 201 199 203 205 204 208 206 205 209 211 212 212 213 216 213 213 219 216 211 218 226 221 222 225 227 225 219 203 192 202 218 227 230 226 230 237 228 226 231 237 241 236 230 226 226 225 221 220 218 214 217 217
287 288 289 289 289 289 284 273 265 269 267 255 253 258 258 253 251 255 253 247 245 236 224 220 218 216 213 212 211 211 214 213 209 205 201 203 204 202 205 206 206 211 207 206 212 215 215 212 212 219 216 210 216 219 212 216 223 222 218 222 234 238 221 208 210 223 239 238 226 228 239 240 229 230 231 236 246 245 235 229 228 226 223 225 225 220 218 217
286 286 287 288 287 287 278 267 268 269 260 253 257 260 258 256 254 252 247 242 241 229 214 211 212 211 211 210 208 209 214 209 206 207 204 203 204 204 208 207 206 211 209 207 212 216 217 211 209 216 218 214 216 218 214 211 217 226 217 216 228 234 230 229 227 229 235 235 228 232 241 242 236 236 230 228 238 242 236 232 231 228 226 228 229 226 222 220
284 283 285 285 284 282 271 265 268 263 256 256 260 260 258 258 254 246 240 237 231 217 209 208 210 210 211 209 206 210 214 206 204 207 204 203 204 205 211 211 208 212 211 210 213 214 216 214 209 211 214 217 217 215 213 209 215 226 227 227 225 228 249 252 228 224 230 235 240 240 241 244 242 236 230 230 236 237 233 231 233 234 233 233 233 229 226 223
282 282 282 282 282 277 266 261 261 259 257 256 256 256 254 254 250 239 234 233 226 217 212 210 210 210 209 206 206 212 213 207 207 206 201 203 206 207 213 214 212 214 214 216 217 213 214 218 216 212 213 217 214 212 212 210 215 222 230 242 226 221 244 245 229 243 251 244 248 246 238 241 246 240 233 235 237 236 232 230 233 237 237 235 233 230 228 225
281 279 279 280 278 272 265 259 256 256 256 254 252 253 250 246 240 234 230 228 226 219 211 210 210 207 205 204 207 211 210 208 208 203 200 204 206 208 215 216 213 215 216 217 219 217 214 217 221 216 212 215 213 211 213 211 216 222 222 231 228 219 229 234 234 249 256 249 250 249 238 236 247 247 239 238 237 236 234 232 236 239 236 232 231 231 229 227
280 277 277 276 271 267 263 257 253 253 252 250 250 249 243 236 232 232 228 225 227 218 208 210 209 205 205 206 208 209 209 210 207 201 201 204 205 207 212 215 213 214 216 216 218 219 215 214 218 215 211 213 211 211 213 209 213 220 218 221 228 225 226 234 238 241 250 252 249 248 242 241 251 250 244 246 240 234 233 235 238 237 233 230 228 230 229 228
279 276 274 271 266 262 256 252 253 254 250 247 246 242 236 231 229 229 226 223 222 214 211 213 208 206 208 208 209 207 207 210 208 202 202 205 206 207 211 212 209 210 213 214 213 215 217 214 213 213 212 210 207 209 213 210 209 213 219 221 223 224 225 232 236 238 246 249 250 250 246 248 255 250 245 253 246 230 225 235 241 235 232 232 228 228 229 229
278 276 272 267 262 256 251 251 252 251 247 243 239 234 230 231 229 226 225 221 215 214 219 217 210 209 208 208 209 207 206 210 207 202 204 206 208 209 211 212 210 210 212 211 209 210 213 210 208 211 210 207 210 212 210 206 205 209 217 218 218 222 225 229 236 242 246 248 250 248 247 254 260 249 238 244 251 234 223 235 246 235 229 232 230 227 229 231
278 274 269 263 258 253 249 248 246 243 242 235 231 229 228 230 229 226 225 221 218 222 221 215 210 209 209 211 210 206 207 210 206 204 205 206 209 210 211 213 213 213 212 210 209 207 208 207 207 210 205 203 213 216 208 205 208 213 218 219 220 223 227 230 235 241 246 249 246 241 242 249 252 245 235 243 259 240 220 229 238 226 224 231 232 229 228 231
278 272 265 260 255 251 246 243 239 236 233 229 228 228 227 228 227 226 226 221 220 225 222 218 213 209 210 213 211 207 209 211 206 206 208 208 210 211 210 212 214 211 209 210 209 207 213 215 209 209 205 202 210 212 206 207 213 216 218 223 227 226 227 237 245 249 255 256 250 247 245 240 244 253 247 243 248 239 230 235 233 227 233 237 240 236 230 231
275 269 263 256 252 247 241 237 233 229 227 226 227 229 228 228 224 223 223 219 220 227 232 226 216 212 211 212 212 208 208 211 206 207 211 210 211 213 211 212 211 209 210 211 207 206 215 219 209 206 207 205 208 211 207 208 213 212 215 224 231 232 230 236 245 249 255 258 253 250 248 242 249 261 252 236 236 240 243 247 246 247 247 243 245 241 232 231
271 267 262 254 249 244 235 231 228 225 225 225 228 230 229 228 226 224 224 224 224 230 238 230 217 215 213 209 212 208 205 209 208 208 213 212 212 214 213 212 210 210 212 213 210 209 217 221 208 204 208 207 209 215 215 212 212 212 216 221 227 234 234 236 243 245 247 253 249 241 245 245 246 257 251 228 223 231 237 243 248 249 247 244 245 241 234 235
269 266 260 252 246 237 228 225 224 222 224 226 229 232 231 230 229 225 225 230 230 228 233 233 220 216 216 211 211 208 205 207 208 209 213 212 213 213 212 212 211 211 215 214 211 211 218 226 210 203 208 209 208 215 218 214 214 217 221 219 221 231 232 230 241 250 249 252 249 244 250 252 247 253 248 223 216 225 233 241 244 243 245 247 246 241 234 237
266 261 256 250 238 227 221 221 222 223 225 227 229 230 231 232 231 227 227 234 237 230 230 235 225 216 218 216 212 209 207 208 210 211 213 213 213 211 211 212 210 210 213 212 211 212 217 225 212 202 207 209 207 213 218 215 215 220 228 233 233 236 234 229 233 241 244 245 245 246 248 249 252 250 231 216 221 228 232 244 246 249 259 255 249 246 238 235
262 254 250 242 226 217 216 219 223 224 226 228 229 230 231 232 231 230 230 233 236 230 226 231 226 214 216 218 215 211 209 210 213 214 214 212 211 210 210 211 209 208 209 211 213 216 219 222 210 201 207 211 208 212 217 217 214 217 226 234 231 228 226 227 228 228 235 242 245 249 247 244 257 247 216 210 225 232 237 253 262 264 268 265 255 250 244 239
257 249 244 231 217 214 215 221 225 226 228 230 230 232 232 232 231 228 228 231 235 229 222 225 225 219 219 220 217 214 211 211 214 216 215 212 212 213 211 210 209 206 207 211 213 216 218 216 209 204 210 217 215 214 218 219 217 216 220 225 226 225 224 227 228 224 230 240 243 248 248 242 247 238 220 218 226 234 240 250 264 264 260 266 265 255 250 247
249 243 237 225 218 218 220 225 228 227 230 230 230 232 232 233 232 228 226 230 232 227 221 223 228 228 228 226 222 220 215 212 213 216 218 214 213 215 210 208 208 206 207 210 210 213 215 211 210 210 216 223 222 218 219 221 222 223 223 222 227 234 231 230 230 225 228 235 237 244 246 240 242 240 234 232 236 252 257 256 269 272 262 265 268 265 262 253
244 241 239 228 222 224 227 230 229 228 230 232 231 233 233 232 232 228 226 227 226 224 222 224 227 227 227 229 229 225 218 214 215 217 220 218 215 215 210 207 208 207 208 209 208 212 214 212 215 214 215 222 223 219 220 221 224 229 227 223 227 234 233 234 236 233 236 238 236 241 240 232 238 241 236 238 247 255 255 255 264 267 267 268 266 271 272 256
249 245 242 235 227 227 229 229 228 229 230 231 232 233 233 233 231 228 226 227 226 225 224 224 225 225 225 227 231 229 221 218 216 216 221 221 216 215 211 208 208 208 208 208 208 211 213 213 217 215 213 217 217 217 221 221 221 227 230 225 225 229 231 235 238 235 239 242 238 240 238 227 232 240 237 243 253 257 258 263 265 260 263 267 266 273 273 258
250 242 237 234 228 228 230 229 229 231 229 229 231 232 232 232 231 228 226 227 227 228 227 225 224 225 225 224 227 229 228 225 218 214 220 221 216 214 211 208 210 210 209 209 209 212 214 212 214 217 217 216 215 218 224 225 221 225 231 229 225 225 227 232 236 234 235 239 238 238 237 228 228 235 244 251 256 263 266 267 265 262 261 261 264 274 275 264
243 235 233 232 228 228 230 230 231 233 231 231 231 231 232 231 229 226 225 225 225 226 229 229 225 223 223 222 224 227 231 230 223 217 218 219 215 213 211 210 210 211 209 208 209 212 217 217 218 222 225 224 223 222 226 231 227 223 226 229 230 232 232 230 234 236 234 236 238 237 237 237 236 241 251 256 255 259 263 259 258 263 268 268 267 271 274 270
234 229 233 236 230 227 227 227 229 230 230 231 232 233 234 233 228 223 222 224 223 223 228 231 226 222 220 220 222 227 231 229 226 225 219 215 215 214 211 211 210 208 209 211 211 213 218 221 223 225 228 231 232 229 226 229 230 226 225 228 231 235 238 237 238 238 234 236 241 239 237 241 243 243 246 249 251 256 260 261 262 263 267 273 272 269 270 272
233 230 235 241 233 226 226 229 230 230 229 229 230 233 236 236 232 225 222 224 223 222 226 229 227 224 222 221 220 223 226 223 224 227 219 212 216 216 210 209 208 206 211 215 215 216 221 225 228 229 228 229 233 237 234 231 232 231 231 235 235 234 237 241 243 242 240 241 246 243 238 241 245 244 244 249 255 258 261 264 267 268 271 276 277 274 273 272
239 233 235 241 235 230 234 237 236 233 229 227 228 231 235 238 235 228 224 223 221 220 223 227 226 224 224 222 219 218 220 221 224 229 223 217 221 217 209 208 208 207 212 216 218 220 224 228 233 233 229 227 230 234 234 236 239 237 234 237 240 237 236 239 243 246 246 247 248 245 242 245 249 250 252 257 260 260 260 263 266 271 276 279 280 280 279 276
243 235 236 241 237 232 235 239 237 233 227 226 228 229 229 232 233 227 222 220 220 220 222 225 226 224 225 225 222 220 219 219 223 228 226 222 222 218 214 213 213 213 214 217 220 222 223 226 230 232 230 229 230 230 231 236 242 243 239 238 240 240 239 239 241 243 246 248 248 246 246 249 252 253 255 257 259 258 259 263 265 269 274 277 279 280 281 280
247 240 239 240 235 230 230 233 234 230 226 226 227 227 227 229 230 226 219 220 223 221 222 226 227 226 227 226 222 220 221 220 222 226 224 221 222 219 215 215 218 220 219 219 222 223 222 224 227 229 231 234 234 234 234 235 239 243 243 242 242 242 241 242 243 244 246 248 249 249 250 253 254 253 251 253 255 254 256 260 263 267 272 276 279 281 282 283
252 245 241 239 235 229 228 230 231 230 228 229 229 229 231 232 231 229 224 224 226 223 221 225 225 222 224 223 217 219 224 223 223 225 224 223 224 221 217 216 219 219 217 218 222 223 223 225 226 228 233 236 235 237 239 241 242 241 241 243 244 243 241 243 245 245 246 248 249 249 251 255 255 252 251 254 256 256 258 262 265 271 276 278 281 283 284 284